Time,TemperatureF,DewpointF,PressureIn,WindDirection,WindDirectionDegrees,WindSpeedMPH,WindSpeedGustMPH,Humidity,HourlyPrecipIn,Conditions,Clouds,dailyrainin,SolarRadiationWatts/m^2,SoftwareType,DateUTC
2013-06-07 00:03:00,74.0,73.0,30.12,SE,141,3.0,8.0,98,0.00,,,0.20,0.000000,,2013-06-07 04:03:00,
2013-06-07 00:12:00,74.0,73.0,30.12,SE,141,3.0,8.0,98,0.00,,,0.20,0.000000,,2013-06-07 04:12:00,
2013-06-07 00:33:00,74.0,73.0,30.10,ENE,72,1.0,7.0,98,0.05,,,0.25,0.000000,,2013-06-07 04:33:00,
2013-06-07 00:42:00,74.0,73.0,30.10,ENE,72,1.0,7.0,98,0.05,,,0.25,0.000000,,2013-06-07 04:42:00,
2013-06-07 00:54:00,74.0,73.0,30.10,ENE,72,1.0,7.0,98,0.05,,,0.25,0.000000,,2013-06-07 04:54:00,
2013-06-07 01:03:00,74.0,73.0,30.10,ENE,72,1.0,7.0,98,0.05,,,0.25,0.000000,,2013-06-07 05:03:00,
2013-06-07 01:12:00,74.0,73.0,30.10,ENE,72,1.0,7.0,98,0.05,,,0.25,0.000000,,2013-06-07 05:12:00,
2013-06-07 01:32:00,72.0,71.0,30.06,ESE,103,6.0,14.0,98,0.20,,,0.45,0.000000,,2013-06-07 05:32:00,
2013-06-07 01:43:00,72.0,71.0,30.06,ESE,103,6.0,14.0,98,0.20,,,0.45,0.000000,,2013-06-07 05:43:00,
2013-06-07 01:52:00,72.0,71.0,30.06,ESE,103,6.0,14.0,98,0.20,,,0.45,0.000000,,2013-06-07 05:52:00,
2013-06-07 02:02:00,72.0,71.0,30.06,ESE,103,6.0,14.0,98,0.20,,,0.45,0.000000,,2013-06-07 06:02:00,
2013-06-07 02:12:00,72.0,71.0,30.06,ESE,103,6.0,14.0,98,0.20,,,0.45,0.000000,,2013-06-07 06:12:00,
2013-06-07 02:32:00,72.0,71.0,30.01,ESE,107,9.0,16.0,98,0.44,,,0.89,0.000000,,2013-06-07 06:32:00,
2013-06-07 02:43:00,72.0,71.0,30.01,ESE,107,9.0,16.0,98,0.44,,,0.89,0.000000,,2013-06-07 06:43:00,
2013-06-07 02:52:00,72.0,71.0,30.01,ESE,107,9.0,16.0,98,0.44,,,0.89,0.000000,,2013-06-07 06:52:00,
2013-06-07 03:02:00,72.0,71.0,30.01,ESE,107,9.0,16.0,98,0.44,,,0.89,0.000000,,2013-06-07 07:02:00,
2013-06-07 03:12:00,72.0,71.0,30.01,ESE,107,9.0,16.0,98,0.44,,,0.89,0.000000,,2013-06-07 07:12:00,
2013-06-07 03:32:00,75.0,73.0,29.99,SSE,168,17.0,40.0,95,0.49,,,1.38,0.000000,,2013-06-07 07:32:00,
2013-06-07 03:42:00,75.0,73.0,29.99,SSE,168,17.0,40.0,95,0.49,,,1.38,0.000000,,2013-06-07 07:42:00,
2013-06-07 03:52:00,75.0,73.0,29.99,SSE,168,17.0,40.0,95,0.49,,,1.38,0.000000,,2013-06-07 07:52:00,
2013-06-07 04:02:00,75.0,73.0,29.99,SSE,168,17.0,40.0,95,0.49,,,1.38,0.000000,,2013-06-07 08:02:00,
2013-06-07 04:12:00,75.0,73.0,29.99,SSE,168,17.0,40.0,95,0.49,,,1.38,0.000000,,2013-06-07 08:12:00,
2013-06-07 04:32:00,73.0,71.0,29.95,SSE,166,10.0,37.0,94,0.16,,,1.54,0.000000,,2013-06-07 08:32:00,
2013-06-07 04:43:00,73.0,71.0,29.95,SSE,166,10.0,37.0,94,0.16,,,1.54,0.000000,,2013-06-07 08:43:00,
2013-06-07 04:52:00,73.0,71.0,29.95,SSE,166,10.0,37.0,94,0.16,,,1.54,0.000000,,2013-06-07 08:52:00,
2013-06-07 05:02:00,73.0,71.0,29.95,SSE,166,10.0,37.0,94,0.16,,,1.54,0.000000,,2013-06-07 09:02:00,
2013-06-07 05:12:00,73.0,71.0,29.95,SSE,166,10.0,37.0,94,0.16,,,1.54,0.000000,,2013-06-07 09:12:00,
2013-06-07 05:33:00,77.0,75.0,29.93,South,175,11.0,21.0,94,0.01,,,1.55,0.000000,,2013-06-07 09:33:00,
2013-06-07 05:43:00,77.0,75.0,29.93,South,175,11.0,21.0,94,0.01,,,1.55,0.000000,,2013-06-07 09:43:00,
2013-06-07 05:53:00,77.0,75.0,29.93,South,175,11.0,21.0,94,0.01,,,1.55,0.000000,,2013-06-07 09:53:00,
2013-06-07 06:03:00,77.0,75.0,29.93,South,175,11.0,21.0,94,0.01,,,1.55,0.000000,,2013-06-07 10:03:00,
2013-06-07 06:13:00,77.0,75.0,29.93,South,175,11.0,21.0,94,0.01,,,1.55,0.000000,,2013-06-07 10:13:00,
2013-06-07 06:33:00,78.0,75.0,29.93,South,179,13.0,29.0,92,0.00,,,1.55,0.000000,,2013-06-07 10:33:00,
2013-06-07 06:43:00,78.0,75.0,29.93,South,179,13.0,29.0,92,0.00,,,1.55,0.000000,,2013-06-07 10:43:00,
2013-06-07 06:53:00,78.0,75.0,29.93,South,179,13.0,29.0,92,0.00,,,1.55,0.000000,,2013-06-07 10:53:00,
2013-06-07 07:02:00,78.0,75.0,29.93,South,179,13.0,29.0,92,0.00,,,1.55,0.000000,,2013-06-07 11:02:00,
2013-06-07 07:12:00,78.0,75.0,29.93,South,179,13.0,29.0,92,0.00,,,1.55,0.000000,,2013-06-07 11:12:00,
2013-06-07 07:32:00,77.0,74.0,29.91,South,173,11.0,25.0,89,0.00,,,1.55,21.000000,,2013-06-07 11:32:00,
2013-06-07 07:42:00,77.0,74.0,29.91,South,173,11.0,25.0,89,0.00,,,1.55,21.000000,,2013-06-07 11:42:00,
2013-06-07 07:52:00,77.0,74.0,29.91,South,173,11.0,25.0,89,0.00,,,1.55,21.000000,,2013-06-07 11:52:00,
2013-06-07 08:02:00,77.0,74.0,29.91,South,173,11.0,25.0,89,0.00,,,1.55,21.000000,,2013-06-07 12:02:00,
2013-06-07 08:13:00,77.0,74.0,29.91,South,173,11.0,25.0,89,0.00,,,1.55,21.000000,,2013-06-07 12:13:00,
2013-06-07 08:33:00,79.0,75.0,29.90,South,185,15.0,31.0,87,0.03,,,1.58,108.000000,,2013-06-07 12:33:00,
2013-06-07 08:42:00,79.0,75.0,29.90,South,185,15.0,31.0,87,0.03,,,1.58,108.000000,,2013-06-07 12:42:00,
2013-06-07 08:52:00,79.0,75.0,29.90,South,185,15.0,31.0,87,0.03,,,1.58,108.000000,,2013-06-07 12:52:00,
2013-06-07 09:02:00,79.0,75.0,29.90,South,185,15.0,31.0,87,0.03,,,1.58,108.000000,,2013-06-07 13:02:00,
2013-06-07 09:13:00,79.0,75.0,29.90,South,185,15.0,31.0,87,0.03,,,1.58,108.000000,,2013-06-07 13:13:00,
2013-06-07 09:43:00,81.0,75.0,29.88,South,175,17.0,38.0,83,0.00,,,1.58,288.000000,,2013-06-07 13:43:00,
2013-06-07 09:52:00,81.0,75.0,29.88,South,175,17.0,38.0,83,0.00,,,1.58,288.000000,,2013-06-07 13:52:00,
2013-06-07 10:03:00,81.0,75.0,29.88,South,175,17.0,38.0,83,0.00,,,1.58,288.000000,,2013-06-07 14:03:00,
2013-06-07 10:13:00,81.0,75.0,29.88,South,175,17.0,38.0,83,0.00,,,1.58,288.000000,,2013-06-07 14:13:00,
2013-06-07 10:33:00,77.0,72.0,29.87,South,186,17.0,40.0,86,0.01,,,1.59,485.000000,,2013-06-07 14:33:00,
2013-06-07 10:42:00,77.0,72.0,29.87,South,186,17.0,40.0,86,0.01,,,1.59,485.000000,,2013-06-07 14:42:00,
2013-06-07 10:52:00,77.0,72.0,29.87,South,186,17.0,40.0,86,0.01,,,1.59,485.000000,,2013-06-07 14:52:00,
2013-06-07 11:03:00,77.0,72.0,29.87,South,186,17.0,40.0,86,0.01,,,1.59,485.000000,,2013-06-07 15:03:00,
2013-06-07 11:12:00,77.0,72.0,29.87,South,186,17.0,40.0,86,0.01,,,1.59,485.000000,,2013-06-07 15:12:00,
2013-06-07 11:33:00,76.0,72.0,29.86,South,187,17.0,42.0,88,0.02,,,-99.99,408.000000,,2013-06-07 15:33:00,
2013-06-07 11:43:00,76.0,72.0,29.86,South,187,17.0,42.0,88,0.02,,,-99.99,408.000000,,2013-06-07 15:43:00,
2013-06-07 11:53:00,76.0,72.0,29.86,South,187,17.0,42.0,88,0.02,,,-99.99,408.000000,,2013-06-07 15:53:00,
2013-06-07 12:03:00,76.0,72.0,29.86,South,187,17.0,42.0,88,0.02,,,-99.99,408.000000,,2013-06-07 16:03:00,
2013-06-07 12:13:00,76.0,72.0,29.86,South,187,17.0,42.0,88,0.02,,,-99.99,408.000000,,2013-06-07 16:13:00,
2013-06-07 12:33:00,78.0,72.0,29.85,SSW,207,14.0,33.0,83,0.01,,,1.62,636.000000,,2013-06-07 16:33:00,
2013-06-07 12:43:00,78.0,72.0,29.85,SSW,207,14.0,33.0,83,0.01,,,1.62,636.000000,,2013-06-07 16:43:00,
2013-06-07 12:53:00,78.0,72.0,29.85,SSW,207,14.0,33.0,83,0.01,,,1.62,636.000000,,2013-06-07 16:53:00,
2013-06-07 13:03:00,78.0,72.0,29.85,SSW,207,14.0,33.0,83,0.01,,,1.62,636.000000,,2013-06-07 17:03:00,
2013-06-07 13:13:00,78.0,72.0,29.85,SSW,207,14.0,33.0,83,0.01,,,1.62,636.000000,,2013-06-07 17:13:00,
2013-06-07 13:18:00,80.0,72.0,29.82,SSW,209,16.0,35.0,76,0.00,,,1.62,551.000000,,2013-06-07 17:18:00,
2013-06-07 13:32:00,80.0,72.0,29.82,SSW,209,16.0,35.0,76,0.00,,,1.62,551.000000,,2013-06-07 17:32:00,
2013-06-07 13:43:00,80.0,72.0,29.82,SSW,209,16.0,35.0,76,0.00,,,1.62,551.000000,,2013-06-07 17:43:00,
2013-06-07 13:53:00,80.0,72.0,29.82,SSW,209,16.0,35.0,76,0.00,,,1.62,551.000000,,2013-06-07 17:53:00,
2013-06-07 14:10:00,80.0,72.0,29.82,SSW,209,16.0,35.0,76,0.00,,,1.62,551.000000,,2013-06-07 18:10:00,
2013-06-07 14:38:00,78.0,71.0,29.81,SW,215,15.0,32.0,80,0.00,,,1.47,419.000000,,2013-06-07 18:38:00,
2013-06-07 14:45:00,78.0,71.0,29.81,SW,215,15.0,32.0,80,0.00,,,1.47,419.000000,,2013-06-07 18:45:00,
2013-06-07 15:01:00,78.0,71.0,29.81,SW,215,15.0,32.0,80,0.00,,,1.47,419.000000,,2013-06-07 19:01:00,
2013-06-07 15:08:00,78.0,71.0,29.81,SW,215,15.0,32.0,80,0.00,,,1.47,419.000000,,2013-06-07 19:08:00,
2013-06-07 15:51:00,81.0,73.0,29.82,SW,228,15.0,35.0,76,0.00,,,1.46,474.000000,,2013-06-07 19:51:00,
2013-06-07 15:59:00,81.0,73.0,29.82,SW,228,15.0,35.0,76,0.00,,,1.46,474.000000,,2013-06-07 19:59:00,
2013-06-07 16:08:00,81.0,73.0,29.82,SW,228,15.0,35.0,76,0.00,,,1.46,474.000000,,2013-06-07 20:08:00,
2013-06-07 16:18:00,78.0,69.0,29.87,West,260,15.0,38.0,75,0.00,,,1.45,282.000000,,2013-06-07 20:18:00,
2013-06-07 16:42:00,78.0,69.0,29.87,West,260,15.0,38.0,75,0.00,,,1.45,282.000000,,2013-06-07 20:42:00,
2013-06-07 16:59:00,78.0,69.0,29.87,West,260,15.0,38.0,75,0.00,,,1.45,282.000000,,2013-06-07 20:59:00,
2013-06-07 17:07:00,78.0,69.0,29.87,West,260,15.0,38.0,75,0.00,,,1.45,282.000000,,2013-06-07 21:07:00,
2013-06-07 17:18:00,78.0,69.0,29.91,West,268,14.0,36.0,74,0.00,,,1.44,291.000000,,2013-06-07 21:18:00,
2013-06-07 17:43:00,78.0,69.0,29.91,West,268,14.0,36.0,74,0.00,,,1.44,291.000000,,2013-06-07 21:43:00,
2013-06-07 18:09:00,78.0,69.0,29.91,West,268,14.0,36.0,74,0.00,,,1.44,291.000000,,2013-06-07 22:09:00,
2013-06-07 18:18:00,80.0,71.0,29.94,West,267,10.0,31.0,75,0.00,,,1.42,302.000000,,2013-06-07 22:18:00,
2013-06-07 18:39:00,80.0,71.0,29.94,West,267,10.0,31.0,75,0.00,,,1.42,302.000000,,2013-06-07 22:39:00,
2013-06-07 18:49:00,80.0,71.0,29.94,West,267,10.0,31.0,75,0.00,,,1.42,302.000000,,2013-06-07 22:49:00,
2013-06-07 19:00:00,80.0,71.0,29.94,West,267,10.0,31.0,75,0.00,,,1.42,302.000000,,2013-06-07 23:00:00,
2013-06-07 19:10:00,80.0,71.0,29.94,West,267,10.0,31.0,75,0.00,,,1.42,302.000000,,2013-06-07 23:10:00,
2013-06-07 19:18:00,78.0,69.0,29.99,West,262,9.0,26.0,74,0.00,,,1.42,214.000000,,2013-06-07 23:18:00,
2013-06-07 19:41:00,78.0,69.0,29.99,West,262,9.0,26.0,74,0.00,,,1.42,214.000000,,2013-06-07 23:41:00,
2013-06-07 19:55:00,78.0,69.0,29.99,West,262,9.0,26.0,74,0.00,,,1.42,214.000000,,2013-06-07 23:55:00,
2013-06-07 20:05:00,78.0,69.0,29.99,West,262,9.0,26.0,74,0.00,,,1.42,214.000000,,2013-06-08 00:05:00,
2013-06-07 20:14:00,78.0,69.0,29.99,West,262,9.0,26.0,74,0.00,,,1.42,214.000000,,2013-06-08 00:14:00,
2013-06-07 20:18:00,76.0,69.0,30.02,WSW,254,6.0,25.0,78,0.00,,,-99.99,105.000000,,2013-06-08 00:18:00,
2013-06-07 20:37:00,76.0,69.0,30.02,WSW,254,6.0,25.0,78,0.00,,,-99.99,105.000000,,2013-06-08 00:37:00,
2013-06-07 20:49:00,76.0,69.0,30.02,WSW,254,6.0,25.0,78,0.00,,,-99.99,105.000000,,2013-06-08 00:49:00,
2013-06-07 21:02:00,76.0,69.0,30.02,WSW,254,6.0,25.0,78,0.00,,,-99.99,105.000000,,2013-06-08 01:02:00,
2013-06-07 21:08:00,76.0,69.0,30.02,WSW,254,6.0,25.0,78,0.00,,,-99.99,105.000000,,2013-06-08 01:08:00,
2013-06-07 21:40:00,76.0,71.0,30.06,WSW,240,4.0,13.0,85,0.00,,,1.42,4.000000,,2013-06-08 01:40:00,
2013-06-07 21:49:00,76.0,71.0,30.06,WSW,240,4.0,13.0,85,0.00,,,1.42,4.000000,,2013-06-08 01:49:00,
2013-06-07 22:03:00,76.0,71.0,30.06,WSW,240,4.0,13.0,85,0.00,,,1.42,4.000000,,2013-06-08 02:03:00,
2013-06-07 22:16:00,76.0,71.0,30.06,WSW,240,4.0,13.0,85,0.00,,,1.42,4.000000,,2013-06-08 02:16:00,
2013-06-07 22:37:00,72.0,68.0,30.09,SSW,212,3.0,6.0,88,0.00,,,1.42,0.000000,,2013-06-08 02:37:00,
2013-06-07 22:49:00,72.0,68.0,30.09,SSW,212,3.0,6.0,88,0.00,,,1.42,0.000000,,2013-06-08 02:49:00,
2013-06-07 23:00:00,72.0,68.0,30.09,SSW,212,3.0,6.0,88,0.00,,,1.42,0.000000,,2013-06-08 03:00:00,
2013-06-07 23:12:00,72.0,68.0,30.09,SSW,212,3.0,6.0,88,0.00,,,1.42,0.000000,,2013-06-08 03:12:00,
2013-06-07 23:40:00,73.0,71.0,30.10,SW,214,3.0,8.0,93,0.00,,,1.42,0.000000,,2013-06-08 03:40:00,
2013-06-07 23:54:00,73.0,71.0,30.10,SW,214,3.0,8.0,93,0.00,,,1.42,0.000000,,2013-06-08 03:54:00,